Location: Seattle
(47.6064°N, 122.3308°W)
Time: 21:40:12
(UTC-07:00)

ITUPSAT 1 - Pass Details

Date: 06 April 2023
Orbit: 697 x 710 km, 98.5° (Epoch: 29 May)

Event Time Altitude Azimuth Distance (km) Brightness Sun altitude
Rises 23:05:47 0° 8° (N) 3,119 ? -29.0°
Reaches altitude 10° 23:08:09 10° 2° (N) 2,194 ? -29.2°
Maximum altitude 23:12:39 42° 292° (WNW) 1,012 ? -29.6°
Enters shadow 23:13:13 40° 274° (W) 1,039 ? -29.7°
